When you browse on this site, cookies collect data to enhance your experience and personalize the content and advertising you see.
Visit our Privacy Policy to learn more. By continuing to use the site, you agree to this use of cookies and data.
  • In Latvia
  • List of Countries
  • For 7 days
  • Water Temperature
  • Weather Map
  • Weather Widgets
  • user-avatar
    Login

    Hourly Weather Zhlobin

    Today, 11 December, Wednesday

    Time Temperature Precipitation Wind Pressure Humidity
    00:00 +2°C° 0 mm 2 mps 751 mmHg 95%
    01:00 +2°C° 0 mm 2 mps 751 mmHg 94%
    02:00 +1°C° 0 mm 3 mps 752 mmHg 92%
    03:00 0°C° 0 mm 3 mps 752 mmHg 91%
    04:00 +1°C° 0 mm 2 mps 752 mmHg 91%
    05:00 -1°C° 0 mm 2 mps 752 mmHg 90%
    06:00 -1°C° 0 mm 2 mps 752 mmHg 90%
    07:00 -2°C° 0 mm 2 mps 752 mmHg 90%
    08:00 0°C° 0 mm 1 mps 753 mmHg 90%
    09:00 +1°C° 0 mm 1 mps 753 mmHg 85%
    10:00 +2°C° 0 mm 1 mps 753 mmHg 81%
    11:00 +3°C° 0 mm 1 mps 753 mmHg 77%
    12:00 +3°C° 0 mm 1 mps 753 mmHg 76%
    13:00 +3°C° 0 mm 1 mps 753 mmHg 74%
    14:00 +3°C° 0 mm 1 mps 754 mmHg 71%
    15:00 +3°C° 0 mm 1 mps 754 mmHg 74%
    16:00 +2°C° 0 mm 1 mps 753 mmHg 77%
    17:00 -1°C° 0 mm 2 mps 753 mmHg 80%
    18:00 +1°C° 0 mm 1 mps 754 mmHg 82%
    19:00 +1°C° 0 mm 1 mps 754 mmHg 83%
    20:00 0°C° 0 mm 1 mps 754 mmHg 84%
    21:00 -2°C° 0 mm 2 mps 754 mmHg 85%
    22:00 -2°C° 0 mm 2 mps 754 mmHg 86%
    23:00 -2°C° 0 mm 2 mps 754 mmHg 86%

    Tomorrow, 12 December, Thursday

    Time Temperature Precipitation Wind Pressure Humidity
    00:00 -2°C° 0 mm 2 mps 754 mmHg 88%
    01:00 -2°C° 0 mm 2 mps 754 mmHg 89%
    02:00 -2°C° 0 mm 2 mps 753 mmHg 90%
    03:00 -2°C° 0 mm 3 mps 753 mmHg 92%
    04:00 -1°C° 0 mm 3 mps 752 mmHg 94%
    05:00 -1°C° 0 mm 3 mps 752 mmHg 95%
    06:00 -1°C° 0 mm 4 mps 752 mmHg 95%
    07:00 -1°C° 0 mm 4 mps 752 mmHg 95%
    08:00 0°C° 0 mm 5 mps 752 mmHg 95%
    09:00 0°C° 0 mm 5 mps 752 mmHg 94%
    10:00 0°C° 0 mm 5 mps 751 mmHg 93%
    11:00 +1°C° 0 mm 5 mps 751 mmHg 92%
    12:00 +1°C° 0 mm 5 mps 751 mmHg 92%
    13:00 +1°C° 0 mm 5 mps 751 mmHg 91%
    14:00 +1°C° 0 mm 4 mps 751 mmHg 91%
    15:00 +1°C° 0 mm 4 mps 750 mmHg 93%
    16:00 +1°C° 0 mm 4 mps 750 mmHg 94%
    17:00 +1°C° 0 mm 4 mps 750 mmHg 95%
    18:00 0°C° 0 mm 4 mps 750 mmHg 94%
    19:00 0°C° 0 mm 4 mps 750 mmHg 93%
    20:00 0°C° 0 mm 4 mps 750 mmHg 92%
    21:00 -1°C° 0 mm 4 mps 749 mmHg 93%
    22:00 -1°C° 0 mm 4 mps 749 mmHg 93%
    23:00 -1°C° 0 mm 5 mps 749 mmHg 93%

    Day after tomorrow, 13 December, Friday

    Time Temperature Precipitation Wind Pressure Humidity
    00:00 -2°C° 0 mm 5 mps 748 mmHg 93%
    01:00 -2°C° 0 mm 5 mps 748 mmHg 93%
    02:00 -2°C° 0 mm 5 mps 748 mmHg 93%
    03:00 -2°C° 0 mm 5 mps 748 mmHg 92%
    04:00 -2°C° 0 mm 5 mps 747 mmHg 92%
    05:00 -2°C° 0 mm 5 mps 746 mmHg 91%
    06:00 -2°C° 0 mm 5 mps 746 mmHg 91%
    07:00 -2°C° 0 mm 5 mps 746 mmHg 90%
    08:00 -1°C° 0 mm 5 mps 746 mmHg 90%
    09:00 -1°C° 0 mm 5 mps 746 mmHg 88%
    10:00 -1°C° 0 mm 5 mps 746 mmHg 86%
    11:00 -2°C° 0 mm 6 mps 745 mmHg 84%
    12:00 -2°C° 0 mm 6 mps 745 mmHg 83%
    13:00 -1°C° 0 mm 5 mps 745 mmHg 81%
    14:00 0°C° 0 mm 5 mps 744 mmHg 79%
    15:00 -1°C° 0 mm 5 mps 744 mmHg 80%
    16:00 -1°C° 0 mm 5 mps 744 mmHg 80%
    17:00 -1°C° 0 mm 5 mps 744 mmHg 80%
    18:00 -1°C° 0 mm 5 mps 744 mmHg 82%
    19:00 -1°C° 0 mm 5 mps 744 mmHg 83%
    20:00 -2°C° 0 mm 5 mps 744 mmHg 84%
    21:00 -1°C° 0 mm 5 mps 744 mmHg 83%
    22:00 -1°C° 0 mm 5 mps 744 mmHg 82%
    23:00 -2°C° 0 mm 6 mps 744 mmHg 82%

    14 December, Saturday

    Time Temperature Precipitation Wind Pressure Humidity
    00:00 -1°C° 0 mm 5 mps 744 mmHg 82%
    01:00 -1°C° 0 mm 5 mps 744 mmHg 83%
    02:00 -1°C° 0 mm 5 mps 744 mmHg 84%
    03:00 -1°C° 0 mm 5 mps 744 mmHg 83%
    04:00 -1°C° 0 mm 5 mps 744 mmHg 83%
    05:00 -1°C° 0 mm 5 mps 744 mmHg 83%
    06:00 -1°C° 0 mm 5 mps 744 mmHg 83%
    07:00 -1°C° 0 mm 5 mps 744 mmHg 84%
    08:00 -1°C° 0 mm 5 mps 744 mmHg 84%
    09:00 -1°C° 0 mm 4 mps 744 mmHg 85%
    10:00 -1°C° 0 mm 4 mps 744 mmHg 85%
    11:00 -1°C° 0 mm 4 mps 744 mmHg 85%
    12:00 0°C° 0 mm 4 mps 744 mmHg 87%
    13:00 0°C° 0 mm 4 mps 744 mmHg 90%
    14:00 0°C° 0 mm 4 mps 744 mmHg 92%
    15:00 0°C° 0 mm 4 mps 744 mmHg 92%
    16:00 0°C° 0 mm 4 mps 744 mmHg 92%
    17:00 0°C° 0 mm 4 mps 744 mmHg 93%
    18:00 0°C° 0 mm 4 mps 744 mmHg 93%
    19:00 0°C° 0 mm 4 mps 744 mmHg 92%
    20:00 0°C° 0 mm 5 mps 744 mmHg 92%
    21:00 0°C° 0.1 mm 5 mps 744 mmHg 93%
    22:00 0°C° 0.1 mm 4 mps 744 mmHg 93%
    23:00 +1°C° 0.1 mm 4 mps 744 mmHg 94%

    15 December, Sunday

    Time Temperature Precipitation Wind Pressure Humidity
    00:00 +1°C° 0.5 mm 4 mps 744 mmHg 95%
    01:00 +1°C° 0.5 mm 4 mps 744 mmHg 95%
    02:00 +1°C° 0.5 mm 4 mps 744 mmHg 96%
    03:00 +1°C° 0.1 mm 4 mps 744 mmHg 96%
    04:00 +1°C° 0.1 mm 4 mps 744 mmHg 95%
    05:00 +3°C° 0.1 mm 4 mps 744 mmHg 95%
    06:00 +3°C° 0 mm 4 mps 745 mmHg 94%
    07:00 +3°C° 0 mm 4 mps 745 mmHg 93%
    08:00 +3°C° 0 mm 4 mps 745 mmHg 92%
    09:00 +3°C° 0 mm 4 mps 746 mmHg 88%
    10:00 +3°C° 0 mm 4 mps 746 mmHg 85%
    11:00 +3°C° 0 mm 4 mps 747 mmHg 82%
    12:00 +3°C° 0 mm 4 mps 747 mmHg 80%
    13:00 +3°C° 0 mm 3 mps 747 mmHg 79%
    14:00 +4°C° 0 mm 3 mps 747 mmHg 78%
    15:00 +3°C° 0 mm 3 mps 747 mmHg 80%
    16:00 +3°C° 0 mm 4 mps 748 mmHg 82%
    17:00 +1°C° 0 mm 4 mps 748 mmHg 84%
    18:00 +2°C° 0 mm 5 mps 748 mmHg 81%
    19:00 +2°C° 0 mm 5 mps 748 mmHg 77%
    20:00 +3°C° 0 mm 5 mps 748 mmHg 74%
    21:00 +3°C° 0.4 mm 5 mps 748 mmHg 76%
    22:00 +3°C° 0.4 mm 6 mps 748 mmHg 78%
    23:00 +3°C° 0.4 mm 6 mps 748 mmHg 80%

    16 December, Monday

    Time Temperature Precipitation Wind Pressure Humidity
    00:00 +3°C° 0 mm 6 mps 748 mmHg 76%
    01:00 +4°C° 0 mm 6 mps 747 mmHg 73%
    02:00 +4°C° 0 mm 6 mps 747 mmHg 69%
    03:00 +4°C° 0 mm 6 mps 748 mmHg 71%
    04:00 +4°C° 0 mm 6 mps 748 mmHg 73%
    05:00 +3°C° 0 mm 6 mps 749 mmHg 75%
    06:00 +3°C° 0 mm 5 mps 749 mmHg 79%
    07:00 +2°C° 0 mm 5 mps 750 mmHg 82%
    08:00 +1°C° 0 mm 4 mps 751 mmHg 85%
    09:00 +2°C° 0 mm 5 mps 751 mmHg 81%
    10:00 +2°C° 0 mm 5 mps 752 mmHg 76%
    11:00 +2°C° 0 mm 5 mps 753 mmHg 72%
    12:00 +3°C° 0 mm 4 mps 753 mmHg 70%
    13:00 +3°C° 0 mm 4 mps 753 mmHg 69%
    14:00 +4°C° 0 mm 3 mps 753 mmHg 68%
    15:00 +3°C° 0 mm 3 mps 754 mmHg 71%
    16:00 +2°C° 0 mm 3 mps 754 mmHg 75%
    17:00 +2°C° 0 mm 2 mps 754 mmHg 79%
    18:00 +1°C° 0 mm 3 mps 754 mmHg 79%
    19:00 +1°C° 0 mm 3 mps 754 mmHg 79%
    20:00 +2°C° 0 mm 3 mps 754 mmHg 78%
    21:00 +2°C° 0 mm 3 mps 754 mmHg 78%
    22:00 +2°C° 0 mm 3 mps 754 mmHg 78%
    23:00 +3°C° 0 mm 4 mps 754 mmHg 77%
    Show more